New Bedford, MA

10:26 PM EST on December 02, 2016 (GMT -0500)
New Bedford Regional

Weather History for KEWB - December, 2013

Change the Weather History Date:

Saturday, December 14, 2013

  Actual Average Record
Temperature  
Mean Temperature 22 °F -  
Max Temperature 30 °F 43 °F 62 °F (2015)
Min Temperature 15 °F 29 °F 6 °F (1976)
Degree Days  
Heating Degree Days 42    
Moisture  
Dew Point 15 °F    
Average Humidity 75    
Maximum Humidity 100    
Minimum Humidity 47    
Precipitation  
Precipitation 0.13 in - - ()
Sea Level Pressure  
Sea Level Pressure 30.39 in    
Wind  
Wind Speed 7 mph (NE)    
Max Wind Speed 14 mph    
Max Gust Speed 21 mph    
Visibility 5 miles    
Events Fog , Snow    
Averages and records for this station are not official NWS values.
T = Trace of Precipitation, MM = Missing Value Source: NWS Daily Summary

Daily Weather History Graph

Daily Weather History Graph

Search for Another Location

Airport or City:

Trip Planner

Search our weather history database for the weather conditions in past years. The results will help you decide how hot, cold, wet, or windy it might be!

Date:

Astronomy

Dec. 14, 2013 Rise Set
Actual Time 7:03 AM EST 4:14 PM EST
Civil Twilight 6:31 AM EST 4:45 PM EST
Nautical Twilight 5:56 AM EST 5:20 PM EST
Astronomical Twilight 5:22 AM EST 5:54 PM EST
Moon 2:35 PM EST (12/14) 4:19 AM EST (12/14)
Length of Visible Light 10h 13m
Length of Day
9h 10m
Waxing Gibbous, 93% of the Moon is Illuminated
Dec 14
Waxing Gibbous
Dec 17
Full
Dec 25
Last Quarter
Jan 1
New
Jan 7
First Quarter

Hourly Weather History & Observations

Time (EST) Temp. Windchill Dew Point Humidity Pressure Visibility Wind Dir Wind Speed Gust Speed Precip Events Conditions
12:53 AM 24.1 °F 19.7 °F 12.0 °F 60% 30.36 in 10.0 mi Variable 3.5 mph - N/A   Overcast
1:53 AM 21.0 °F 13.4 °F 12.0 °F 68% 30.40 in 10.0 mi North 5.8 mph - N/A   Overcast
2:53 AM 18.0 °F 7.7 °F 6.1 °F 60% 30.45 in 10.0 mi North 8.1 mph - N/A   Mostly Cloudy
3:53 AM 17.1 °F 5.8 °F 1.9 °F 52% 30.44 in 10.0 mi North 9.2 mph - N/A   Overcast
4:53 AM 16.0 °F 7.4 °F 1.0 °F 52% 30.46 in 10.0 mi Variable 5.8 mph - N/A   Overcast
5:53 AM 16.0 °F 6.3 °F 1.0 °F 52% 30.49 in 10.0 mi North 6.9 mph - N/A   Overcast
6:53 AM 15.1 °F 7.7 °F -0.0 °F 51% 30.51 in 10.0 mi Variable 4.6 mph - N/A   Overcast
7:53 AM 15.1 °F 6.4 °F -0.9 °F 49% 30.53 in 10.0 mi North 5.8 mph - N/A   Overcast
8:53 AM 16.0 °F 7.4 °F -0.9 °F 47% 30.57 in 10.0 mi NNE 5.8 mph - N/A   Overcast
9:53 AM 17.1 °F 7.6 °F -0.0 °F 47% 30.58 in 10.0 mi NNE 6.9 mph - N/A   Overcast
10:53 AM 18.0 °F 8.7 °F 1.9 °F 50% 30.56 in 10.0 mi North 6.9 mph - N/A   Overcast
11:53 AM 19.0 °F 10.0 °F 7.0 °F 59% 30.55 in 10.0 mi NE 6.9 mph - N/A   Overcast
12:53 PM 19.9 °F 10.1 °F 9.0 °F 62% 30.52 in 9.0 mi North 8.1 mph - 0.00 in Snow Light Snow
1:49 PM 19.4 °F 11.5 °F 10.4 °F 68% 30.50 in 10.0 mi NNE 5.8 mph - 0.00 in   Overcast
1:53 PM 19.9 °F 8.6 °F 10.9 °F 68% 30.51 in 10.0 mi North 10.4 mph - 0.00 in   Overcast
2:53 PM 19.9 °F 12.1 °F 12.0 °F 71% 30.49 in 10.0 mi NNE 5.8 mph - N/A   Overcast
3:33 PM 19.4 °F 12.8 °F 14.0 °F 80% 30.49 in 3.0 mi NNE 4.6 mph - 0.00 in Snow Light Snow
3:53 PM 19.9 °F 13.4 °F 15.1 °F 81% 30.49 in 2.0 mi NNE 4.6 mph - 0.00 in Snow Light Snow
4:18 PM 19.4 °F 11.5 °F 15.8 °F 86% 30.47 in 2.0 mi NNE 5.8 mph - 0.00 in Snow Light Snow
4:53 PM 19.9 °F 12.1 °F 17.1 °F 89% 30.45 in 1.8 mi NNE 5.8 mph - 0.00 in Snow Light Snow
5:53 PM 23.0 °F 13.9 °F 19.9 °F 88% 30.41 in 1.5 mi ENE 8.1 mph - 0.01 in Snow Light Snow
6:07 PM 24.8 °F 14.0 °F 21.2 °F 86% 30.39 in 2.0 mi ENE 11.5 mph - 0.00 in Snow Light Snow
6:20 PM 24.8 °F 13.4 °F 21.2 °F 86% 30.37 in 1.5 mi ENE 12.7 mph 20.7 mph 0.00 in Snow Light Snow
6:33 PM 24.8 °F 14.6 °F 21.2 °F 86% 30.36 in 2.5 mi ENE 10.4 mph - 0.00 in Snow Light Snow
6:40 PM 24.8 °F 15.3 °F 21.2 °F 86% 30.36 in 4.0 mi ENE 9.2 mph - 0.00 in Snow Light Snow
6:53 PM 26.1 °F - 21.9 °F 84% 30.37 in 7.0 mi North - - 0.00 in   Overcast
7:24 PM 26.6 °F 15.2 °F 21.2 °F 80% 30.36 in 10.0 mi East 13.8 mph 20.7 mph N/A   Overcast
7:43 PM 26.6 °F 16.2 °F 21.2 °F 80% 30.35 in 2.0 mi ENE 11.5 mph 18.4 mph 0.00 in Snow Light Snow
7:53 PM 27.0 °F 16.1 °F 23.0 °F 85% 30.34 in 2.0 mi East 12.7 mph 18.4 mph 0.00 in Snow Light Snow
8:53 PM 27.0 °F 18.0 °F 24.1 °F 89% 30.29 in 2.0 mi ENE 9.2 mph - 0.00 in Snow Light Snow
9:17 PM 26.6 °F 16.8 °F 24.8 °F 93% 30.27 in 0.8 mi ENE 10.4 mph - 0.01 in Snow Light Snow
9:36 PM 28.4 °F 19.7 °F 24.8 °F 86% 30.27 in 0.5 mi ENE 9.2 mph - 0.02 in Fog , Snow Snow
9:53 PM 28.0 °F 18.6 °F 26.1 °F 92% 30.25 in 0.5 mi ENE 10.4 mph - 0.03 in Fog , Snow Snow
10:40 PM 28.4 °F 18.5 °F 26.6 °F 93% 30.18 in 1.0 mi ENE 11.5 mph - 0.04 in Snow Light Snow
10:51 PM 28.4 °F 19.1 °F 26.6 °F 93% 30.17 in 0.8 mi ENE 10.4 mph - 0.05 in Snow Light Snow
10:53 PM 28.9 °F 19.8 °F 27.0 °F 92% 30.17 in 1.0 mi ENE 10.4 mph - 0.05 in Snow Light Snow
11:04 PM 28.4 °F 19.1 °F 28.4 °F 100% 30.16 in 0.8 mi ENE 10.4 mph - 0.00 in Snow Light Snow
11:42 PM 30.2 °F 20.2 °F 28.4 °F 93% 30.12 in 1.2 mi East 12.7 mph - 0.03 in Snow Light Snow
11:53 PM 30.9 °F 21.2 °F 28.9 °F 92% 30.10 in 1.2 mi East 12.7 mph 20.7 mph 0.04 in Snow Light Snow